Location: Newark
(41.0400°S, 62.7845°W)
Time: 05:16:44
(UTC+00:00)

Courier 1B Rocket - Pass Details

Date: 02 December 2021
Orbit: 920 x 1202 km, 28.2° (Epoch: 24 January)

Event Time Altitude Azimuth Distance (km) Brightness Sun altitude
Rises 18:06:45 0° 285° (WNW) 4,100 8.7 57.4°
Reaches altitude 10° 18:09:59 10° 295° (WNW) 3,142 8.4 56.9°
Maximum altitude 18:16:33 30° 352° (N) 2,009 7.4 55.7°
Drops below altitude 10° 18:23:00 10° 49° (NE) 3,078 7.6 54.6°
Sets 18:26:09 0° 59° (ENE) 4,004 8.0 54.1°
